Location: Blandford
(50.8667°N, 2.1667°W)
Time: 11:54:45
(UTC+00:00)

SL-4 R/B - Pass Details

Date: 09 April 2020
Orbit: 428 x 666 km, 51.6° (Epoch: 02 June)

Event Time Altitude Azimuth Distance (km) Brightness Sun altitude
Rises 20:40:10 0° 264° (W) 2,393 6.1 -15.8°
Reaches altitude 10° 20:42:16 10° 266° (W) 1,526 5.0 -16.1°
Maximum altitude 20:45:40 80° 353° (N) 445 1.5 -16.5°
Enters shadow 20:47:10 31° 77° (ENE) 788 2.5 -16.7°
